Regional Weather Roundup
Issued by NWS

Home | Current Version | Previous Version | Graphics & Text | Print | Product List | Glossary Off
Versions: 1 2 3 4 5 6 7 8 9 10 11 12 13 14 15 16 17 18 19 20 21 22 23 24 25 26 27 28 29 30 31 32 33 34 35 36 37 38 39 40 41 42 43 44 45 46 47 48 49 50

000
ASUS43 KMKX 180521
RWRWI

WISCONSIN REGIONAL WEATHER ROUNDUP
NATIONAL WEATHER SERVICE MILWAUKEE/SULLIVAN WI
1100 PM CST WED DEC 17 2014

NOTE: "FAIR" INDICATES FEW OR NO CLOUDS BELOW 12,000 FEET WITH NO
SIGNIFICANT WEATHER AND/OR OBSTRUCTIONS TO VISIBILITY.

WIZ001-002-006>008-014>016-023>028-180600-
NORTHWEST WISCONSIN

CITY           SKY/WX    TMP DP  RH WIND       PRES   REMARKS
SUPERIOR ARPT  CLOUDY    20  17  89 NW3       30.32S
ASHLAND        CLOUDY    21  19  92 CALM      30.30S
HAYWARD        CLOUDY    19  14  81 CALM      30.29R
SIREN          FLURRIES  17  13  87 CALM      30.33R
CUMBERLAND     CLOUDY    18  12  79 W6        30.29S WCI   9
RICE LAKE      CLOUDY    19  14  81 W6        30.32R WCI  11
CHETEK         CLOUDY    19  14  80 CALM      30.31R
LADYSMITH      CLOUDY    21  17  86 NW7       30.28R WCI  12
EAU CLAIRE     CLOUDY    19  12  74 W5        30.31R WCI  12
MENOMONIE      CLOUDY    19  13  79 W5        30.32S WCI  12
NEW RICHMOND   CLOUDY    15  13  91 CALM      30.32S
OSCEOLA        CLOUDY    15  13  93 CALM      30.36S
$$

WIZ003>005-009-010-017-018-180600-
NORTH CENTRAL WISCONSIN

CITY           SKY/WX    TMP DP  RH WIND       PRES   REMARKS
MANITOWISH WTR CLOUDY    20  19  95 NE6       30.22R WCI  13
ARBOR VITAE    CLOUDY    22  19  89 NE5       30.22R WCI  16
WOODRUFF       CLOUDY    22  19  89 NE5       30.22R WCI  16
RHINELANDER    CLOUDY    20  18  92 NE7       30.21R WCI  11
EAGLE RIVER    CLOUDY    21  20  96 N8        30.20S WCI  12
LAND O LAKES   CLOUDY    22  20  95 N9        30.21S WCI  11
PHILLIPS       CLOUDY    21  18  87 NE9       30.23R WCI  11
TOMAHAWK       CLOUDY    21  18  88 N5        30.23R WCI  15
MEDFORD        CLOUDY    21  18  88 NW3       30.23R
MERRILL        CLOUDY    23  19  86 NE10      30.23R WCI  12
$$

WIZ029-030-035-036-043>047-180600-
CENTRAL WISCONSIN

CITY           SKY/WX    TMP DP  RH WIND       PRES   REMARKS
WAUSAU         CLOUDY    24  19  81 N6        30.23R WCI  17
MOSINEE        CLOUDY    23  21  93 N5        30.24R WCI  17
MARSHFIELD     CLOUDY    20  14  77 W8        30.26R WCI  10
STEVENS POINT  CLOUDY    21  16  80 W6        30.26R WCI  13
WAUPACA        CLOUDY    24  17  74 W8        30.27R WCI  16
WAUTOMA        CLOUDY    21  15  78 NW8       30.29R WCI  11
WISC RAPIDS    CLOUDY    19  12  74 W7        30.29R WCI  10
CAMP DOUGLAS   CLOUDY    19  18  93 W5        30.28F WCI  13
$$

WIZ011>013-019>022-031-037>040-048>050-180600-
NORTHEAST WISCONSIN

CITY           SKY/WX    TMP DP  RH WIND       PRES   REMARKS
ANTIGO         CLOUDY    22  20  92 N10       30.20R WCI  11
SHAWANO        CLOUDY    28  21  76 NW5       30.24R WCI  23
OCONTO         CLOUDY    27  23  85 NW7       30.22S WCI  19
STURGEON BAY   CLOUDY    27  21  80 N13G18    30.22R WCI  16
GREEN BAY      CLOUDY    27  21  78 NW6       30.24R WCI  20
MANITOWOC      CLOUDY    26  21  81 W8        30.24R WCI  18
APPLETON       CLOUDY    23  18  80 W12       30.25R WCI  12
CLINTONVILLE   CLOUDY    27  19  74 NW7       30.25R WCI  19
OSHKOSH        CLOUDY    22  15  75 W9        30.26R WCI  12
$$

WIZ032>034-041-042-053>061-180600-
SOUTHWEST WISCONSIN

CITY           SKY/WX    TMP DP  RH WIND       PRES   REMARKS
LA CROSSE      PTCLDY    18  12  77 N6        30.32R WCI  10
SPARTA         CLOUDY    19  12  73 CALM      30.31S
VIROQUA        PTCLDY    16  13  89 N6        30.25S WCI   7
BOSCOBEL       CLEAR     17  12  80 CALM      30.34R
PRAIRIE DU CHI MOCLDY    18  13  82 CALM      30.33R
PLATTEVILLE    CLEAR     18  15  88 CALM      30.30S
$$

WIZ056-057-062-063-064-067-068-180600-
SOUTH CENTRAL WISCONSIN

CITY           SKY/WX    TMP DP  RH WIND       PRES   REMARKS
REEDSBURG      CLOUDY    17  13  86 CALM      30.27F
BARABOO/DELLS  CLOUDY    18  13  83 N7        30.26F WCI   8
LONE ROCK      CLEAR     22  12  65 CALM      30.31R
MINERAL POINT  MOCLDY    19  18  93 CALM      30.28R
MADISON        CLEAR     18  12  77 NW3       30.27R
MIDDLETON      CLEAR     20  14  79 W3        30.29R
WATERTOWN      CLEAR     18  15  87 NW5       30.26S WCI  11
MONROE         CLOUDY    23  18  80 W5        30.28R WCI  17
JANESVILLE     PTCLDY    21  16  79 CALM      30.28R
$$

WIZ051-052-058>065-066-070>072-180600-
SOUTHEAST WISCONSIN

CITY           SKY/WX    TMP DP  RH WIND       PRES   REMARKS
MILWAUKEE      PTCLDY    22  13  68 NW10      30.26R WCI  11
WAUKESHA       CLEAR     18  14  86 W8        30.27R WCI   7
MILWAUKEE/TIMM CLEAR     19  14  79 W8        30.27R WCI   9
RACINE         PTCLDY    21  14  74 W7        30.28R WCI  12
BURLINGTON     CLEAR     18  13  82 W5        30.29R WCI  11
KENOSHA        CLEAR     20  14  77 W8        30.28R WCI  10
FOND DU LAC    CLOUDY    22  15  75 W5        30.27R WCI  16
SHEBOYGAN      CLOUDY    23  16  74 W9        30.25R WCI  13
WEST BEND      CLOUDY    21  14  73 W6        30.25S WCI  14
JUNEAU         CLOUDY    19  14  81 W5        30.27S WCI  12
$$

LSZ147-162-180600-
LAKE SUPERIOR

STATION/POSITION TIME  TEMP    WIND        PRES    WAVE
                       AIR SEA DIR/SP/G            HT/PER
                 (UTC) (F)     (DEG/KT/KT) (MB)    (FT/S)
DEVILS ISLAND    0500   26      60/ 13/ 16 1027.5F
PORT WING        0440   21     150/  1/  2 1026.8R
SAXON HARBOR     0400   27      50/ 10/ 16 1025.4F
$$

LMZ867-665-643>646-180600-
LAKE MICHIGAN

STATION/POSITION TIME  TEMP    WIND        PRES    WAVE
                       AIR SEA DIR/SP/G            HT/PER
                 (UTC) (F)     (DEG/KT/KT) (MB)    (FT/S)
CHAMBERS ISLAND  0400   29     320/ 14/ 19 1022.7
NORTHPORT PIER   0400   30     350/ 16/ 21 1022.0R
SISTER BAY       0413           20/ 15/ 21   N/A
ALGOMA LAKESHORE 0414          330/ 11/ 16   N/A
KEWAUNEE LAKESHO 0500   27     330/  5/  9 1022.3R
SHEBOYGAN LAKESH 0500   24 35  270/ 12/ 13 1025.5R
PORT WASHINGTON  0440   22     290/  8/ 12 1025.4R
MILWAUKEE LAKESH 0500   22     300/ 11/ 14   N/A
KENOSHA   LAKESH 0500   22     270/  7/  9 1025.4R
$$

TC  - TEMPERATURE IN CELSIUS
VSB - VISIBILITY IN STATUTE MILES
WCI - WIND CHILL INDEX
HX  - HEAT INDEX



USA.gov is the U.S. government's official web portal to all federal, state and local government web resources and services.